Regional Weather Roundup
Issued by NWS

Home | Current Version | Previous Version | Graphics & Text | Print | Product List | Glossary On
Versions: 1 2 3 4 5 6 7 8 9 10 11 12 13 14 15 16 17 18 19 20 21 22 23 24 25 26 27 28 29 30 31 32 33 34 35 36 37 38 39 40 41 42 43 44 45 46 47 48 49 50
000
ASUS45 KBOU 020507
RWRCO

WEATHER ROUNDUP FOR COLORADO
NATIONAL WEATHER SERVICE DENVER/BOULDER CO
1100 PM MDT WED OCT 01 2014

NOTE: "FAIR" INDICATES FEW OR NO CLOUDS BELOW 12000 FEET WITH NO
SIGNIFICANT WEATHER AND/OR OBSTRUCTIONS TO VISIBILITY.

COZ001>005-013-030-031-020600-
...NORTHWEST COLORADO...

CITY           SKY/WX    TMP DP  RH WIND       PRES   REMARKS
CRAIG          MOCLDY    38  34  85 CALM      30.19R
HAYDEN         CLOUDY    37  34  87 CALM      30.18R
MEEKER         PTCLDY    36  34  92 CALM      30.20R
MOUNT WERNER   NOT AVBL
STEAMBOAT SPGS CLOUDY    36  34  92 S3        30.17R
WALDEN         CLOUDY    34  32  93 SE5       30.15R WCI  30
$$

COZ006>008-011-020600-
...WEST CENTRAL VALLEYS...

CITY           SKY/WX    TMP DP  RH WIND       PRES   REMARKS
GRAND JUNCTION CLOUDY    44  42  93 NE5       30.15R
MONTROSE       CLOUDY    42  38  85 NW9       30.18S
EAGLE          CLOUDY    39  37  93 S5        30.20S
RIFLE          CLOUDY    43  39  86 S6        30.18R
DELTA          RAIN      47  44  87 SE6       30.14S
NUCLA          MOCLDY    46  36  66 N3        30.19R
$$

COZ017>023-064>068-020600-
...SOUTHWEST COLORADO...

CITY           SKY/WX    TMP DP  RH WIND       PRES   REMARKS
DURANGO        PTCLDY    44  36  73 CALM      30.08R
CORTEZ         PTCLDY    49  35  58 NW5       30.12R
PAGOSA SPRINGS PTCLDY    39  32  75 CALM      30.11S
TELLURIDE      FLURRIES N/A N/A N/A SW8       30.19S
WOLF CREEK PAS CLEAR     27  21  80 SW13      30.24S WCI  16
$$

COZ009-010-012-014-032>034-037-058>063-020600-
...CENTRAL COLORADO...

CITY           SKY/WX    TMP DP  RH WIND       PRES   REMARKS
ASPEN          LGT RAIN  34  33  96 CALM      30.18R
BUENA VISTA    MOCLDY    39  32  75 N14       30.11F
COPPER MTN     CLOUDY    25  19  80 W22       30.22S WCI  10
BERTHOUD PASS  SNOW      18  16  93 NW24G31   30.19F VSB<1/4 WCI   0
COTTONWOOD PAS MOCLDY    36  27  69 NW12G24   30.14S
GUNNISON       CLOUDY    37  30  75 CALM      30.16S
KREMMLING      CLOUDY    37  32  81 SW3       30.18R
LEADVILLE      LGT SNOW  29  24  82 N10G22    30.18R WCI  20
MONARCH PASS   CLOUDY    25  23  93 MISG      30.29R
SALIDA         MOCLDY    46  27  46 W12       30.17R
SUNLIGHT       CLOUDY    28  28 100 N5        30.25S WCI  23
WILKERSON PASS NOT AVBL
$$

COZ069>075-020600-
...SAN LUIS VALLEY/SANGRE DE CRISTO MOUNTAINS...

CITY           SKY/WX    TMP DP  RH WIND       PRES   REMARKS
ALAMOSA        CLOUDY    42  36  79 NW7       30.08R
LA VETA PASS   NOT AVBL
SAGUACHE       PTCLDY    43  30  61 NW21G26   30.11S
$$

COZ035-036-038>040-020600-
...NORTHERN COLORADO FRONT RANGE...

CITY           SKY/WX    TMP DP  RH WIND       PRES   REMARKS
DENVER INTL AP LGT RAIN  43  40  89 W12       30.08R
DMNS CITY PARK   N/A     43  41  92 NW3       30.10R
AURORA         LGT RAIN  43  43 100 NW8       30.09R
FRONT RANGE AP NOT AVBL
ERIE MUNI ARPT LGT RAIN  44  42  93 S7        30.09R
BOULDER MUN AP RAIN      43  41  93 CALM      30.08R
CENTENNIAL     LGT RAIN  41  39  93 W6        30.09R
BROOMFIELD     NOT AVBL
FORT COLLINS   CLOUDY    45  37  76 N3        30.09R
LONGMONT       LGT RAIN  47  42  83 CALM      30.11R
$$

COZ041-046-047-076>085-087-088-020600-
...PIKES PEAK/PALMER DIVIDE AND SOUTHERN FOOTHILLS...

CITY           SKY/WX    TMP DP  RH WIND       PRES   REMARKS
COLO. SPRINGS  CLOUDY    45  37  73 N22G28    30.04S
A. F. ACADEMY  MOCLDY    42  35  75 NW15G25   30.06F
ELLICOTT       NOT AVBL
FALCON         CLOUDY    42  37  82 N20       30.06S
FORT CARSON    PTCLDY    46  37  72 N23G30    30.02R
LIMON          CLOUDY    44  42  93 N16       30.01F
MONUMENT HILL  DRIZZLE   37  36  93 NW9       30.08F
TRINIDAD       CLEAR     51  32  48 NW9       29.97R
$$

COZ042>045-048>051-090-091-020600-
...NORTHEAST COLORADO...

CITY           SKY/WX    TMP DP  RH WIND       PRES   REMARKS
GREELEY ARPT   CLOUDY    45  36  70 NW7       30.08R
AKRON          CLOUDY    44  43  96 NW10      30.03R
BURLINGTON     LGT RAIN  48  45  89 N20G29    29.95F
WRAY           LGT RAIN  49  48  94 N12G17    30.00R
STERLING       CLOUDY    48  46  93 NW6       30.02R
HOLYOKE        CLOUDY    52  45  76 N13G22    29.98S
FORT MORGAN    CLOUDY    45  41  88 W3        30.07R
$$

COZ086-089-092>099-020600-
...SOUTHEAST COLORADO...

CITY           SKY/WX    TMP DP  RH WIND       PRES   REMARKS
PUEBLO         PTCLDY    52  40  63 N23G32    29.97R
LA JUNTA       CLEAR     50  44  80 N9G18     29.95R
LAMAR          MOCLDY    52  46  80 N17       29.87R
SPRINGFIELD      N/A     55  43  63 N17       29.88R
$$



USA.gov is the U.S. government's official web portal to all federal, state and local government web resources and services.